Location: Brusselsch Zeekanaal
(50.8667°N, 4.3667°E)
Time: 12:21:48
(UTC+00:00)

Cosmos 2219 Rocket - Pass Details

Date: 08 November 2025
Orbit: 825 x 847 km, 71.0° (Epoch: 10 December)

Event Time Altitude Azimuth Distance (km) Brightness Sun altitude
Exits shadow 04:37:03 40° 278° (W) 1,219 2.5 -20.5°
Maximum altitude 04:38:09 45° 309° (NW) 1,135 2.5 -20.4°
Drops below altitude 10° 04:43:37 10° 22° (NNE) 2,479 4.9 -19.5°
Sets 04:46:12 0° 29° (NNE) 3,419 5.7 -19.1°
